{"data":{"norad_id":64029,"epoch":"2026-05-25T02:03:02.613024Z","epoch_age_seconds":64068,"freshness":"FRESH","line1":"1 64029U 25102H   26145.08544691  .00003303  00000+0  28443-3 0  9998","line2":"2 64029  70.0008 281.9018 0002836 262.0545  98.0292 14.98337311 57440","mean_motion":14.98337311,"eccentricity":0.0002836,"inclination_deg":70.0008,"raan_deg":281.9018,"arg_perigee_deg":262.0545,"mean_anomaly_deg":98.0292,"bstar":0.00028443,"rev_number":5744,"period_min":96.106530180373,"perigee_km":570.06221407985,"apogee_km":574.00435066401,"semimajor_km":6950.1702823719,"source":"CELESTRAK","updated_at":"2026-05-25T13:38:20.225568Z"}}